TimeEDT,TemperatureF,Dew PointF,Humidity,Sea Level PressureIn,VisibilityMPH,Wind Direction,Wind SpeedMPH,Gust SpeedMPH,PrecipitationIn,Events,Conditions,WindDirDegrees,DateUTC
12:53 AM,66.0,55.0,68,30.04,10.0,SSW,5.8,-,N/A,,Clear,200,2013-09-29 04:53:00
1:53 AM,64.0,55.0,73,30.04,10.0,SSW,4.6,-,N/A,,Clear,200,2013-09-29 05:53:00
2:53 AM,64.9,55.0,70,30.03,10.0,South,4.6,-,N/A,,Overcast,190,2013-09-29 06:53:00
3:53 AM,66.0,55.0,68,30.01,10.0,SSW,5.8,-,N/A,,Overcast,200,2013-09-29 07:53:00
4:53 AM,66.0,55.0,68,30.01,10.0,SSW,8.1,-,N/A,,Overcast,200,2013-09-29 08:53:00
5:53 AM,64.9,55.9,73,30.01,10.0,SSW,4.6,-,N/A,,Overcast,210,2013-09-29 09:53:00
6:53 AM,64.9,55.9,73,30.01,10.0,SSW,4.6,-,N/A,,Overcast,210,2013-09-29 10:53:00
7:53 AM,64.9,57.0,75,30.03,9.0,WSW,6.9,-,0.00,Rain,Light Rain,250,2013-09-29 11:53:00
8:09 AM,62.6,59.0,88,30.05,2.0,WSW,4.6,-,0.07,Rain,Heavy Rain,250,2013-09-29 12:09:00
8:41 AM,62.6,60.8,94,30.04,3.0,SW,5.8,-,0.17,Rain,Light Rain,220,2013-09-29 12:41:00
8:53 AM,62.1,60.1,93,30.03,2.5,SW,5.8,-,0.20,Rain,Rain,220,2013-09-29 12:53:00
9:01 AM,62.6,60.8,94,30.04,4.0,SW,5.8,-,0.01,Rain,Light Rain,220,2013-09-29 13:01:00
9:09 AM,62.6,60.8,94,30.04,2.0,SW,5.8,-,0.04,Rain,Heavy Rain,220,2013-09-29 13:09:00
9:12 AM,62.6,60.8,94,30.04,1.8,SW,6.9,-,0.05,Rain,Heavy Rain,220,2013-09-29 13:12:00
9:26 AM,62.6,60.8,94,30.04,2.5,SW,5.8,-,0.09,Rain,Rain,220,2013-09-29 13:26:00
9:35 AM,62.6,60.8,94,30.04,4.0,SW,6.9,-,0.10,Rain,Light Rain,220,2013-09-29 13:35:00
9:53 AM,62.1,61.0,96,30.03,3.0,SW,6.9,-,0.14,Rain,Rain,220,2013-09-29 13:53:00
10:53 AM,63.0,61.0,93,30.03,9.0,SSW,9.2,18.4,0.03,,Overcast,210,2013-09-29 14:53:00
11:53 AM,63.0,61.0,93,30.03,9.0,SSW,9.2,-,0.03,,Overcast,210,2013-09-29 15:53:00
12:53 PM,64.0,62.1,93,30.03,7.0,SW,6.9,-,N/A,,Overcast,230,2013-09-29 16:53:00
1:31 PM,62.6,62.6,100,30.04,1.8,SW,6.9,-,0.00,Rain,Light Rain,220,2013-09-29 17:31:00
1:53 PM,63.0,62.1,97,30.02,1.8,SW,5.8,-,0.01,,Overcast,220,2013-09-29 17:53:00
2:17 PM,64.4,62.6,94,30.02,2.5,SW,6.9,-,0.00,,Overcast,220,2013-09-29 18:17:00
2:25 PM,64.4,62.6,94,30.02,3.0,SW,5.8,-,0.00,,Overcast,230,2013-09-29 18:25:00
2:45 PM,64.4,62.6,94,30.01,2.5,SW,5.8,-,0.00,,Overcast,220,2013-09-29 18:45:00
2:53 PM,64.0,63.0,96,30.00,2.5,SW,4.6,-,0.00,,Overcast,220,2013-09-29 18:53:00
3:53 PM,64.0,63.0,96,29.99,2.0,SW,8.1,-,0.01,,Overcast,230,2013-09-29 19:53:00
4:53 PM,64.0,63.0,96,29.99,2.0,SSW,4.6,-,N/A,,Overcast,210,2013-09-29 20:53:00
5:07 PM,64.4,62.6,94,30.00,1.5,SSW,5.8,-,0.01,,Overcast,210,2013-09-29 21:07:00
5:45 PM,64.4,62.6,94,30.00,2.0,SSW,3.5,-,0.01,,Overcast,210,2013-09-29 21:45:00
5:53 PM,64.0,62.1,93,29.99,2.0,South,6.9,-,0.01,,Overcast,190,2013-09-29 21:53:00
6:13 PM,64.4,62.6,94,30.00,4.0,SSW,5.8,-,N/A,,Overcast,210,2013-09-29 22:13:00
6:20 PM,64.4,62.6,94,30.00,3.0,SSW,4.6,-,N/A,,Overcast,200,2013-09-29 22:20:00
6:27 PM,64.4,62.6,94,30.00,1.8,SSW,6.9,-,0.01,,Overcast,200,2013-09-29 22:27:00
6:53 PM,63.0,62.1,97,29.99,1.5,SSW,4.6,-,0.01,,Overcast,210,2013-09-29 22:53:00
7:05 PM,62.6,62.6,100,30.00,1.5,South,6.9,-,0.01,Rain,Light Rain,190,2013-09-29 23:05:00
7:36 PM,62.6,60.8,94,30.00,2.5,SSW,6.9,-,0.01,,Overcast,200,2013-09-29 23:36:00
7:43 PM,62.6,60.8,94,30.01,3.0,SSW,4.6,-,0.01,,Overcast,210,2013-09-29 23:43:00
7:53 PM,62.1,61.0,96,29.99,3.0,SSW,5.8,-,0.01,,Overcast,200,2013-09-29 23:53:00
8:53 PM,62.1,61.0,96,30.01,4.0,SSW,6.9,-,N/A,,Overcast,210,2013-09-30 00:53:00
9:53 PM,62.1,61.0,96,30.01,5.0,SSW,5.8,-,0.01,,Overcast,210,2013-09-30 01:53:00
10:53 PM,62.1,61.0,96,30.00,6.0,SSW,4.6,-,N/A,,Overcast,210,2013-09-30 02:53:00
11:30 PM,62.6,60.8,94,30.01,5.0,SSW,3.5,-,N/A,,Overcast,200,2013-09-30 03:30:00
11:53 PM,62.1,61.0,96,30.00,5.0,SSW,4.6,-,N/A,,Overcast,210,2013-09-30 03:53:00